Tracking 22989 objects as of 8-May-2021
HD Live streaming from Space Station
objects crossing your sky now

THORAD AGENA D DEB

Track THORAD AGENA D DEB now!
10-day predictions


NORAD ID: 6216
Int'l Code: 1970-025NE
Perigee: 622.7 km
Apogee: 970.9 km
Inclination: 99.0 °
Period: 100.7 minutes
Semi major axis: 7167 km
RCS: 0.0784 m2 (small)
Launch date: April 8, 1970
Source: United States (US)
Launch site: AIR FORCE WESTERN TEST RANGE (AFWTR)

Note: This is SATELLITE DEBRIS
aabbcc
Your satellite tracking list
Your tracking list is empty




NASA's NSSDC Master Catalog

Two Line Element Set (TLE):
1 06216U 70025NE  21127.88550699  .00000247  00000-0  83650-4 0  9991
2 06216  99.0415 269.5275 0242904 126.1884 236.2029 14.30610667608486
Source of the keplerian elements: AFSPC